Regional Weather Roundup
Issued by NWS

Home | Current Version | Previous Version | Text Only | Print | Product List | Glossary Off
Versions: 1 2 3 4 5 6 7 8 9 10 11 12 13 14 15 16 17 18 19 20 21 22 23 24 25 26 27 28 29 30 31 32 33 34 35 36 37 38 39 40 41 42 43 44 45 46 47 48 49 50

000
ASUS45 KCYS 250410
RWRWY

WYOMING REGIONAL WEATHER ROUNDUP
NATIONAL WEATHER SERVICE CHEYENNE WY
1000 PM MDT THU JUL 24 2014

NOTE:  "FAIR" INDICATES FEW OR NO CLOUDS BELOW 12,000 FEET
WITH NO SIGNIFICANT WEATHER AND/OR OBSTRUCTIONS TO VISIBILITY.

WYZ001-250500-
YELLOWSTONE NATIONAL PARK

CITY           SKY/WX    TMP DP  RH WIND       PRES   REMARKS
LK YELLOWSTONE   N/A     55  19  24 VRB6      30.27R
W YELLOWSTONE  NOT AVBL

$$
WYZ002>013-054>058-071-098>099-250500-
NORTHERN WYOMING

CITY           SKY/WX    TMP DP  RH WIND       PRES   REMARKS
JACKSON        CLEAR     59  19  21 SW10      30.17R
CODY           NOT AVBL
GREYBULL       CLEAR     81  17   9 NW13      29.87R
WORLAND        CLEAR     79  27  14 W3        29.90R
SHERIDAN       CLEAR     69  51  52 NW3       29.95R
BUFFALO        CLEAR     72  49  44 NW23G29   29.98R
GILLETTE       CLEAR     79  53  40 N16G26    29.89R
HULETT         FAIR      75  59  57 MISG      29.87
NEWCASTLE      FAIR      81  30  16 MISG      29.80

$$
WYZ014>020-022>026-101>103-250500-
CENTRAL WYOMING

CITY           SKY/WX    TMP DP  RH WIND       PRES   REMARKS
BIG PINEY      CLEAR     61  22  22 CALM      30.23R
PINEDALE       CLEAR     55  37  50 CALM      30.24R
DUBOIS         FAIR      63  21  20 NW12      30.20R
LANDER         CLEAR     77  28  16 SW9       30.02R
RIVERTON       CLEAR     79  15   9 W18       30.02R
CASPER         CLEAR     78  27  15 W13       29.97R
DOUGLAS        PTCLDY    75  46  35 NW3       29.93R

$$
WYZ021-027>030-104>119-250500-
SOUTHERN WYOMING

CITY           SKY/WX    TMP DP  RH WIND       PRES   REMARKS
EVANSTON       PTCLDY    70  32  24 N6        30.21R
KEMMERER       CLEAR     64  32  29 NW12      30.22S
FORT BRIDGER   FAIR      70  29  21 W8        30.23R
ROCK SPRINGS   PTCLDY    73  27  18 W6        30.18R
DIXON          FAIR      77  41  27 S12G20    30.19S
RAWLINS        PTCLDY    72  41  32 SW7       30.16R
SARATOGA       FAIR      73  41  31 W12       30.22R
LARAMIE        PTCLDY    65  48  54 SW7       30.21R
CHEYENNE       MOCLDY    77  48  35 SW14G23   30.11R
TORRINGTON     CLEAR     71  56  58 E8        29.87R
PINE BLUFFS    FAIR      70  52  52 S9        30.04R

$$


USA.gov is the U.S. government's official web portal to all federal, state and local government web resources and services.